sat.trackr.live / text

‹ back to catalog

STARLINK-11192 [DTC]

NORAD 60308 · 2024-133H

PAYLOAD ACTIVE UNKNOWN

§ Identity

Operator
Country
US
Launch date
2024-07-28
Launch site
AFWTR
Launch vehicle
Mass (kg)
RCS (m²)

Purposes: comms

External: N2YO · Heavens-Above · Gunter

§ Orbital elements

Epoch: 2026-09-21T17:08:11.618304Z

Period
91.74 min
Inclination
53.1595°
Eccentricity
0.0001199
Mean motion
15.69701407 rev/d
Perigee alt
358.9 km
Apogee alt
360.6 km
Semi-major
6,737.9 km
B*
1.5554e-5
RAAN
259.7675°
Arg perigee
87.5743°
Mean anomaly
272.5412°
Rev number
12,452

§ Raw data

STARLINK-11192 [DTC]1 60308U 24133H   26264.71402336  .00001295  00000+0  15554-4 0  99962 60308  53.1595 259.7675 0001199  87.5743 272.5412 15.69701407124529

JSON: /api/v1/satellites/60308 · /tle

For live sub-satellite position, see the globe view (requires WebGL).

§ Visibility from observer

Set your observer location to see the next 7 days of passes ≥ 10°. The values pass through the URL so the page stays shareable.

No JS? Fill the form by hand. The geolocation button needs JavaScript.